Regional Weather Roundup
Issued by NWS Boston, MA

Current Version | Previous Version | Text Only | Print | Product List | Glossary Off
Versions: 1 2 3 4 5 6 7 8 9 10 11 12 13 14 15 16 17 18 19 20 21 22 23 24 25 26 27 28 29 30 31 32 33 34 35 36 37 38 39 40 41 42 43 44 45 46 47 48 49 50
000 ASUS41 KBOX 220701 RWRBOX REGIONAL WEATHER ROUNDUP NATIONAL WEATHER SERVICE BOSTON/NORTON MA 300 AM EDT WED MAY 22 2019 NOTE: "FAIR" INDICATES FEW OR NO CLOUDS BELOW 12,000 FEET WITH NO SIGNIFICANT WEATHER AND/OR OBSTRUCTIONS TO VISIBILITY. MAZALL-220800- EASTERN MASSACHUSETTS CITY SKY/WX TMP DP RH WIND PRES REMARKS BOSTON FAIR 58 36 43 NW16G26 30.02R BEVERLY FAIR 54 36 50 NW10G20 30.00R LAWRENCE FAIR 54 37 52 NW12 30.03R BEDFORD NOT AVBL BLUE HILL N/A 51 35 54 NW12 30.01R NORWOOD FAIR 53 36 52 W3 30.03R MARSHFIELD NOT AVBL PLYMOUTH FAIR 54 35 48 NW9 30.01R TAUNTON FAIR 47 37 68 W3 30.02R NEW BEDFORD FAIR 53 37 54 NW8 30.01R $$ MAZALL-220800- CAPE COD AND THE ISLANDS CITY SKY/WX TMP DP RH WIND PRES REMARKS FALMOUTH FAIR 54 34 47 NW10 30.00R HYANNIS NOT AVBL CHATHAM FAIR 55 39 54 NW9G20 29.98R PROVINCETOWN FAIR 54 43 66 NW17G24 29.99R NANTUCKET FAIR 56 37 49 NW17G26 29.98R MARTHAS VNYRD FAIR 56 35 45 NW16 30.00R $$ MAZALL-220800- CENTRAL AND WESTERN MASSACHUSETTS CITY SKY/WX TMP DP RH WIND PRES REMARKS WORCESTER FAIR 49 34 56 W13 30.05R FITCHBURG FAIR 52 35 52 NW10 30.05R ORANGE FAIR 45 36 70 NW3 30.08R SPRINGFIELD FAIR 48 37 64 NW6 30.07R WESTFIELD FAIR 46 35 65 N5 30.08R NORTH ADAMS FAIR 39 37 92 CALM 30.11R PITTSFIELD FAIR 47 35 63 W8 30.10R $$ RIZALL-220800- RHODE ISLAND CITY SKY/WX TMP DP RH WIND PRES REMARKS PROVIDENCE FAIR 55 35 47 NW8 30.04R NEWPORT FAIR 55 38 52 NW9 30.04R BLOCK ISLAND FAIR 53 41 63 NW8 30.06R SMITHFIELD FAIR 50 35 56 NW7 30.04R WESTERLY FAIR 54 37 52 CALM 30.06R $$ CTZALL-220800- CONNECTICUT CITY SKY/WX TMP DP RH WIND PRES REMARKS BRADLEY INTL FAIR 50 35 56 W6 30.08R HARTFORD FAIR 54 35 48 NW3 30.09R BRIDGEPORT FAIR 53 39 59 NW8 30.11R DANBURY FAIR 47 38 71 NE3 30.13R GROTON NOT AVBL NEW HAVEN FAIR 57 40 52 NW5 30.10R CHESTER FAIR 54 36 50 NW8G15 30.08S MERIDEN FAIR 50 40 68 W6 30.10R WILLIMANTIC FAIR 49 37 63 VRB6 30.08R OXFORD FAIR 50 38 63 W5 30.12R $$ MEZ002-015-021-024-NHZ003-005-008-011-012-014-VTZ005-008-220800- NORTHERN NEW ENGLAND CITY SKY/WX TMP DP RH WIND PRES REMARKS PORTLAND ME FAIR 49 34 56 N5 29.99R BANGOR ME CLOUDY 46 36 68 N16 29.94R CONCORD NH FAIR 51 37 58 NW12G20 30.02R MANCHESTER NH FAIR 53 37 54 W7 30.01R NASHUA NH FAIR 54 37 52 NW10 30.04R PORTSMOUTH NH PTCLDY 53 31 43 NW13G21 29.99R JAFFREY NH FAIR 51 34 52 VRB6 30.05R KEENE NH FAIR 43 40 89 CALM 30.06R BURLINGTON VT FAIR 49 39 68 N3 30.11R MT. WASHINGTON FOG 23 23 100 NW69G79 N/A VSB 1/16WCI -1 $$ NYZ052-076-220800- EASTERN NEW YORK CITY SKY/WX TMP DP RH WIND PRES REMARKS ALBANY FAIR 50 37 61 NW6 30.12R NEW YORK CITY MOCLDY 59 36 42 NW13 30.12S $$ ANZALL-220800- MARINE OBSERVATIONS STATION/POSITION TIME TEMP WIND PRES VSBY WAVE AIR SEA DIR/SP/G HT/PER (UTC) (F) (DEG/KT/KT) (MB) (MI) (FT/S) BOSTON BUOY 0550 55 51 310/ 17/ 23 1014.3 2/ 3 BUZZARDS BAY NOT AVBL NANTUCKET SOUND 0650 55 300/ 14/ 17 1015.3R 1/ 3 MASS BAY-STELLWA 0604 52 47 320/ 16/ 17 1013.1R 1 7/8 2/ 3 ISLE OF SHOALS 0600 54 320/ 18/ 20 1014.2R S OF BLOCK IS 0630 53 N/A 3/ 3 $$ ......................KEY......................... SKY/WX - SKY CONDITION/PRESENT WEATHER TMP - TEMPERATURE IN FAHRENHEIT DWPT - DEWPOINT IN FAHRENHEIT RH - RELATIVE HUMIDITY IN PERCENT WIND - DIRECTION AND SPEED IN MPH PRES - MEAN SEA LEVEL PRESSURE IN INCHES OF HG WCI - WIND CHILL INDEX VSB - VISIBILITY IN MILES HX - HEAT INDEX TC - TEMPERATURE IN CELSIUS VRB - VARIABLE WIND DIRECTION N/A - NOT AVAILABLE

USA.gov is the U.S. government's official web portal to all federal, state and local government web resources and services.